Tracking 29892 objects as of 21-Nov-2024
HD Live streaming from Space Station
objects crossing your sky now

FLOCK 4Q 3

Track FLOCK 4Q 3 now!
10-day predictions
FLOCK 4Q 3 is classified as:


NORAD ID: 58312
Int'l Code: 2023-174BJ
Perigee: 433.8 km
Apogee: 443.4 km
Inclination: 97.4 °
Period: 93.2 minutes
Semi major axis: 6809 km
RCS: Unknown
Launch date: November 11, 2023
Source: United States (US)
Launch site: AIR FORCE WESTERN TEST RANGE (AFWTR)
Your satellite tracking list
Your tracking list is empty




NASA's NSSDC Master Catalog

Two Line Element Set (TLE):
1 58312U 23174BJ  24325.89987094  .00071132  00000-0  14994-2 0  9999
2 58312  97.4337  41.9923 0006999  18.0709 342.0787 15.44968725 57734
Source of the keplerian elements: AFSPC